Location: Samoth
(37.3328°N, 88.7876°W)
Time: 06:57:27
(UTC+00:00)

N. Korean satellite - Visible Passes

Search period start: 23 September 2021 00:00
Search period end: 03 October 2021 00:00
Orbit: 448 x 498 km, 97.3° (Epoch: 22 September)

Date Brightness Start Highest point End Pass type
(mag) Time Alt. Az. Time Alt. Az. Time Alt. Az.
23 Sep 8.2 10:47:06 10° NNE 10:50:27 38° E 10:53:49 10° SSE visible
24 Sep 9.7 10:20:12 10° NE 10:22:35 17° E 10:24:57 10° SE visible
26 Sep 7.4 10:56:50 10° NNE 11:00:21 54° E 11:03:53 10° S visible
27 Sep 9.2 10:29:36 10° NE 10:32:28 22° E 10:35:23 10° SSE visible
29 Sep 6.8 11:06:33 10° NNE 11:10:09 77° E 11:13:46 10° S visible
30 Sep 8.7 10:39:04 10° NE 10:42:17 30° E 10:45:32 10° SSE visible
01 Oct 9.9 10:12:28 10° ENE 10:14:20 14° E 10:16:12 10° SE visible
02 Oct 6.5 11:16:15 10° N 11:19:52 77° WNW 11:23:30 10° SSW visible
